Showing default

NAPA-1, 46320

Orbit data source: Space-Track

NAPA-1, 46320 is a payload satellite owned by RTAF (TH) in SSO that was launched on Thu, 03 Sep 2020 UTC via a VEGA launch vehicle from the French Guiana (FRGUI). Payload-class satellites include a variety of spacecraft equipped with specific instruments for various scientific and technological missions. These include communications satellites like Starlink; space stations such as the ISS; scientific satellites like the Hubble; Earth observation satellites from companies like Planet Labs, Umbra, and HawkEye 360; GPS; miniature CubeSats for education and research; and military/defense satellites.

Loading next visibility...
Identifier
46320, 2020-061BA
Orbit
SSO
Country
Flag of THTH / THAI
Related business
Manufacturer
ISIS BV
Mission
Operational Defense Imaging
Bus & Motor
CUBESAT 6U, Unknown motor
Mass
10 kg wet, 10 kg dry
Launch date (UTC)
2020-09-03 (6 years ago)
Launch vehicle
VEGA
Launch site
French Guiana (FRGUI)
Object type
Payload
Rocket body
Debris
Shape & HBR
Box, Unknown HBR
Radar Cross Section
0.080 m², Medium (>0.1 m² and < 1m²)

Expand to show TLE details & history
Last TLE update: 6 days ago

TLE from 6 days ago
0 NAPA-1
1 46320U 20061BA  26155.26435602  .00067775  00000-0  65429-3 0  9992
2 46320  97.2471 229.0356 0001271 152.5545 207.5783 15.66265059319710
Epoch: 2026-06-04T06:20Z
TLE epoch observation values (Epoch: 2026-06-04T06:20:40.360Z)
Latitude
0.00001°
Longitude
-118.84368°
Altitude
373.521 km
Speed
7.685 km/s
True Right ascension
15h 16m 08s
True Declination
0° 00' 00"
Sunlit
Object was in full shadow at epoch
Visualization orbit readout
Latitude
Unknown
Longitude
Unknown
Altitude
Unknown
Speed
Unknown
Apparent Right ascension
Unknown
Apparent Declination
Unknown
Sunlit
N/A
Visualization observer readout
Local Sidereal Time
22:59:44
Azimuth
Unknown
Elevation
Unknown
Doppler factor
Unknown
Orbital elements
Apogee altitude
367.358 km
Perigee altitude
365.643 km
Semi-major axis
6,744.637 km
Eccentricity
0.00013
Inclination
97.2471°
RAAN
229.0356°
Arg. of periapsis
152.5545°
True anomaly
207.57156°
Mean anomaly
207.5783°
Eccentric anomaly
207.57493°
Mean motion
3.91837 °/min
Orbital period
91.87 mins
BSTAR
0.00065429
Loading maneuver chart data...
Computing Atmospheric mass density...

Documentation

Showing up to 5 results
|